the time You need

,

KS Athlete ()

Nazionalitá:   --

Sesso:   --

Pettorale:   --

Categoria:   --

Società:   --

POS. ASSOLUTA

°

Gara

Granfondo Leopardiana

Percorso

136.0 Km - LUNGO

Atleti arrivati

183

DETTAGLIO PRESTAZIONE

POSIZIONE ASSOLUTA °
TEMPO TOTALE
MEDIA Km/h
CATEGORIA
POSIZIONE CATEGORIA °

Intermedi

PRESTAZIONE A CONFRONTO
ASSOLUTO

NOME Federico Pozzetto
° POSIZIONE ASSOLUTA
TEMPO ASSOLUTO 03:52:53.16
Km/h MEDIA PRIMO ASSOLUTO 35,04 Km/h

PRESTAZIONE A CONFRONTO
CATEGORIA

NOME Federico Pozzetto
° POSIZIONE CATEGORIA
TEMPO PRIMO DI CATEGORIA 03:52:53.16
Km/h MEDIA PRIMO CATEGORIA 35,04 Km/h


 
Grafico Edizioni Precedenti
Risulta una sola edizione, grafico non disponibile.
 
Pos Anno Cat PosCat Sex PosSex Tempo Media RealTime
 

 
Team
Pos Atleta Cat PosCat Tempo Media RealTime
POZZETTO FEDERICO JUN 1 03:52:53.16 35,04 03:52:43.43
SCOTTI FEDERICO SEN1 1 03:52:53.92 35,04 03:52:41.12
CINI FABIO SEN1 2 03:52:58.54 35,03 03:52:46.34
SAMMASSIMO MORIS VET1 1 03:53:33.51 34,94 03:53:22.31
BUSBANI GIANPAOLO VET2 1 03:54:07.00 34,85 03:53:58.58
TERZI DANIELE JUN 2 03:54:19.10 34,82 03:53:59.10
OSTOLANI IVAN SEN2 1 03:54:38.42 34,78 03:54:26.26
ANTONIOLI MIRKO VET1 2 03:54:42.15 34,77 03:54:30.30
MORRONE MARCO SEN1 3 03:55:22.14 34,67 03:55:11.11
10° SCOTTI STEFANO SEN1 4 03:56:49.09 34,46 03:56:37.37
11° TRAINI MATTEO SEN1 5 03:56:52.47 34,45 03:56:29.29
12° CECCHINI STEFANO VET1 3 03:56:59.66 34,43 03:56:59.59
13° VITI FILIPPO SEN2 2 04:08:12.37 32,88 04:08:07.07
14° ANSELMICCHIO GIORGIO SEN1 6 04:09:30.83 32,71 04:09:23.63
15° VOLPE ANDREA SEN1 7 04:09:31.50 32,70 04:09:26.30
16° BRILLI ROBERTO GEN1 1 04:09:35.04 32,69 04:09:26.26
17° SQUARTA DAVID VET1 4 04:09:35.58 32,69 04:09:30.30
18° REGAZZO FEDERICO VET1 5 04:09:36.09 32,69 04:09:32.32
19° LANCONELLI FLAVIO VET2 2 04:09:37.20 32,69 04:09:27.20
20° SALVATORE VITO JUN 3 04:09:45.30 32,67 04:09:26.26
21° ZANNELLI MATTEO SEN1 8 04:11:11.58 32,49 04:11:02.18
22° ZANCONI DAVID VET1 6 04:12:38.28 32,30 04:12:21.08
23° ROSATI GIUSEPPE GEN1 2 04:13:05.19 32,24 04:12:57.19
24° SILVIONI MATTEO JUN 4 04:13:15.13 32,22 04:13:09.09
25° SIMONESCHI STEFANO VET1 7 04:13:19.78 32,21 04:13:09.08
26° SPOLETINI MASSIMO GEN1 3 04:14:19.25 32,09 04:14:07.05
27° FORNARELLI ENRICO JUN 5 04:17:49.62 31,65 04:17:45.02
28° CIMARELLI MAURO GEN2 1 04:17:49.82 31,65 04:17:47.12
29° RUBECHINI LUCA GEN1 4 04:17:50.03 31,65 04:17:41.41
30° PAUPINI FRANCESCO SEN2 3 04:18:34.96 31,56 04:18:18.66
31° PONTELLINI ALBERTO VET2 3 04:18:41.72 31,54 04:18:31.32
32° SBROCCA ALBERTO SEN1 9 04:18:48.23 31,53 04:18:34.03
33° BERTINELLI ALESSANDRO SEN2 4 04:18:55.17 31,52 04:18:47.47
34° MARCOZZI MARINO GEN1 5 04:18:55.73 31,52 04:18:44.44
35° TIRONZELLI GABRIELE VET1 8 04:18:56.48 31,51 04:18:37.28
36° BERTOZZI DANIELE GEN2 2 04:18:56.78 31,51 04:18:53.18
37° CERILLI ALESSANDRO SEN2 5 04:18:58.26 31,51 04:18:38.16
38° SERVADIO SANDRO VET2 4 04:19:22.89 31,46 04:19:19.49
39° SPALLETTI DANIELE VET2 5 04:19:22.98 31,46 04:19:18.98
40° DELLA BARTOLA FABIO VET1 9 04:19:26.84 31,45 04:19:22.84
41° BLADEK TOMASZ SEN1 10 04:19:30.08 31,45 04:19:05.05
42° ANTONIONI LUCA VET1 10 04:19:46.71 31,41 04:19:41.51
43° GARDINI TIZIANO GEN1 6 04:20:17.91 31,35 04:20:10.91
44° PIGOZZI ALBERTO VET1 11 04:20:34.51 31,32 04:20:13.31
45° DI TOMMASO ANGELO ENZO VET1 12 04:21:02.32 31,26 04:20:54.54
46° MARCOZZI SERGIO SEN2 6 04:21:20.45 31,22 04:21:18.18
47° ZANNONI RICCARDO SGA 1 04:21:42.45 31,18 04:21:35.25
48° GUARDIGLI DAVIDE GEN1 7 04:22:14.90 31,12 04:22:10.90
49° BARONCINI DANIELE GEN2 3 04:24:16.67 30,88 04:24:01.01
50° NESCI DAVIDE SEN1 11 04:30:12.31 30,20 04:29:49.49
51° VERDICCHI GIACOMO SEN1 12 04:30:47.86 30,13 04:30:21.66
52° ANGELINI MARCO JUN 6 04:30:56.98 30,12 04:30:43.58
53° BARBETTI LEONARDO SEN1 13 04:31:20.35 30,07 04:31:02.02
54° PANDOLFI CARLO ALBERTO GEN1 8 04:31:22.45 30,07 04:31:13.13
55° MORIGI DANIELE GEN1 9 04:31:24.24 30,07 04:31:10.10
56° BURATTINI ANDREA VET1 13 04:31:25.70 30,06 04:31:02.50
57° MARZOCCHI MARCO GEN2 4 04:31:42.24 30,03 04:31:33.33
58° LAGHI WILLIAM VET2 6 04:31:43.57 30,03 04:31:39.39
59° MAZZAVILLANI PAOLO VET2 7 04:32:26.16 29,95 04:32:24.24
60° MONACELLI GIUSEPPE SEN2 7 04:32:56.27 29,90 04:32:37.37
61° VIANELLI FILIPPO SEN2 8 04:32:58.43 29,89 04:32:40.40
62° NANDI MATTEO SEN2 9 04:33:23.59 29,85 04:33:03.03
63° VENTI MICHELE VET2 8 04:34:44.94 29,70 04:34:28.54
64° BUONTEMPI PAOLO SEN1 14 04:36:18.95 29,53 04:36:06.45
65° ORSINI MARCO VET2 9 04:36:24.16 29,52 04:36:14.14
66° STRAGLIOTTO PIERLUIGI GEN1 10 04:37:09.50 29,44 04:36:57.20
67° CANTORI DANILO VET2 10 04:37:15.12 29,43 04:36:57.57
68° DI TROIA TERENZIO GEN1 11 04:37:52.75 29,37 04:37:30.35
69° MARINELLI MARCO GEN1 12 04:38:08.62 29,34 04:37:50.62
70° TARANI FABRIZIO GEN1 13 04:38:10.15 29,33 04:37:54.54
71° LAGHI STEFANO GEN1 14 04:38:13.24 29,33 04:38:10.10
72° CHIODI GIOIA DNA 1 04:38:13.53 29,33 04:38:05.05
73° EVANGELISTI EMILIANO VET1 14 04:38:14.24 29,33 04:38:04.04
74° FAGGI FRANCESCO SEN2 10 04:38:14.25 29,33 04:38:04.04
75° MARCELLINO RICCARDO VET1 15 04:38:15.52 29,33 04:38:08.12
76° CANGINI GIULIANO VET2 11 04:38:48.79 29,27 04:38:46.46
77° MENGUCCI MAURIZIO GEN2 5 04:39:02.39 29,24 04:38:53.53
78° BERNARDI MAURIZIO GEN2 6 04:39:06.25 29,24 04:38:58.58
79° ORO MARCO VET2 12 04:39:34.80 29,19 04:39:22.50
80° DONATI MAURIZIO GEN2 7 04:39:34.87 29,19 04:39:27.67
81° CERIONI IURI VET2 13 04:39:39.34 29,18 04:39:25.25
82° VECCHI SAMUELE VET2 14 04:41:34.18 28,98 04:41:19.19
83° CATENA PAOLO SEN2 11 04:41:34.48 28,98 04:41:14.48
84° SEGALA FAUSTO SGA 2 04:42:09.62 28,92 04:42:03.02
85° BAZZANI MICHELE VET2 15 04:42:10.44 28,92 04:42:05.05
86° CARLETTINI STEFANO GEN2 8 04:42:11.64 28,92 04:42:06.06
87° FABBRI GIOVANNI GEN1 15 04:42:38.63 28,87 04:42:33.33
88° PICCIONI ANTONIO SGA 3 04:43:58.36 28,74 04:43:44.44
89° SCALABRELLI MAURO SGA 4 04:43:58.86 28,74 04:43:56.46
90° AMABILI PIERO SGA 5 04:43:59.29 28,73 04:43:51.51
91° MORRI DEBORA DNB 1 04:44:15.35 28,71 04:44:10.10
92° MARIANI GIANLUCA VET2 16 04:45:06.88 28,62 04:44:52.58
93° LAZZARI FULVIO SGA 6 04:45:10.03 28,61 04:44:59.59
94° CRINELLA LORIS VET2 17 04:45:46.82 28,55 04:45:35.82
95° MORAZZINI CRISTIAN SEN1 15 04:45:47.66 28,55 04:45:25.46
96° MORELLI MATTEO VET1 16 04:45:51.45 28,55 04:45:31.45
97° ROSSI FABIO SEN2 12 04:45:52.00 28,54 04:45:25.25
98° CIANFLONE MAURIZIO GEN1 16 04:45:53.15 28,54 04:45:37.37
99° BIONDI PIERO GEN2 9 04:45:53.48 28,54 04:45:46.08
100° RICCI CHIARA DNA 2 04:45:55.26 28,54 04:45:47.47
 

ELENCO GARE VISUALIZZAZIONE ESTESA

Data
Evento
Posizione
Punti
Km
Sport